Preview of NWS' New Version of Forecast
This preview is not operational and should not be used for support decisions.

Regional Weather Roundup (RWR)

Issued by National Weather Service (NWS)

                            
000
ASUS43 KBIS 182102
RWRND 

NORTH DAKOTA REGIONAL WEATHER ROUNDUP
NATIONAL WEATHER SERVICE BISMARCK ND
400 PM CDT THU APR 18 2019

NOTE: "FAIR" INDICATES FEW OR NO CLOUDS BELOW 12,000 FEET WITH NO
SIGNIFICANT WEATHER AND/OR OBSTRUCTIONS TO VISIBILITY.


NDZ001>003-009>011-017-182200-
NORTHWEST NORTH DAKOTA
  
CITY           SKY/WX    TMP DP  RH WIND       PRES   REMARKS
WILLISTON      FAIR      60  24  25 NW17G24   30.06F                  
MINOT          FAIR      58  37  45 NW8G18    30.04F                  
MINOT AFB      PTSUNNY   55  37  51 NW12      30.03F                  
$$
 
NDZ018>021-031>035-040>046-182200-
SOUTHWEST NORTH DAKOTA
  
CITY           SKY/WX    TMP DP  RH WIND       PRES   REMARKS
BISMARCK       PTSUNNY   55  39  54 NW15G23   30.08R                  
DICKINSON      PTSUNNY   58  24  27 NW21G31   30.05F                  
GARRISON         N/A     54  36  50 NW14      30.05F                  
HETTINGER ARPT PTSUNNY   55  27  34 NW16G28   30.07F                  
$$
 
NDZ004>008-012>016-024-026-027-054-182200-
NORTHEAST NORTH DAKOTA
  
CITY           SKY/WX    TMP DP  RH WIND       PRES   REMARKS
GRAND FORKS    FAIR      56  32  40 N12       29.99S                  
GRND FRKS AFB  SUNNY     55  32  41 N7G17     30.02R                  
DEVILS LAKE    PTSUNNY   54  26  34 N9        30.03R                  
$$
 
NDZ022-023-025-028>030-036>039-047>053-182200-
SOUTHEAST NORTH DAKOTA
  
CITY           SKY/WX    TMP DP  RH WIND       PRES   REMARKS
FARGO          FAIR      55  40  56 N15       29.97S                  
JAMESTOWN      FAIR      57  33  40 N13       30.00S                  
$$